STARLINK-36431, 67421

Orbit data source: Space-Track

STARLINK-36431, 67421 is a payload satellite owned by SpaceX/Seattle (US) in LEO that was launched on Mon, 12 Jan 2026 UTC via an FALCON 9 launch vehicle from the Air Force Eastern Test Range (AFETR). Payload-class satellites include a variety of spacecraft equipped with specific instruments for various scientific and technological missions. These include communications satellites like Starlink; space stations such as the ISS; scientific satellites like the Hubble; Earth observation satellites from companies like Planet Labs, Umbra, and HawkEye 360; GPS; miniature CubeSats for education and research; and military/defense satellites.

Loading next visibility...
Identifier
67421, 2026-005T
Orbit
LEO
Country
Flag of USUS
Related business
Manufacturer
SpaceX/Seattle
Mission
Operational Commercial Communications
Bus & Motor
STARLINK V2MO, Unknown motor
Mass
575 kg wet, ~530 kg dry
Launch date (UTC)
2026-01-12 (5 months ago)
Launch vehicle
FALCON 9
Launch site
Air Force Eastern Test Range (AFETR)
Object type
Payload
Rocket body
Debris
Shape & HBR
Box + 2 Pan, 17.7 m
Radar Cross Section
36.964 m², Large (>1 m²)

Expand to show TLE details & history
Last TLE update: 13 hours ago

TLE from 13 hours ago
0 STARLINK-36431
1 67421U 26005T   26171.28669285  .00011867  00000-0  43991-3 0  9998
2 67421  43.0051  18.8938 0001625 269.7165  90.3501 15.27591541 24387
Epoch: 2026-06-20T06:52Z
TLE epoch observation values (Epoch: 2026-06-20T06:52:50.262Z)
Latitude
0.00003°
Longitude
7.18091°
Altitude
482.798 km
Speed
7.626 km/s
True Right ascension
01h 15m 34s
True Declination
0° 00' 00"
Sunlit
Object was in daylight at epoch
Visualization orbit readout
Latitude
Unknown
Longitude
Unknown
Altitude
Unknown
Speed
Unknown
Apparent Right ascension
Unknown
Apparent Declination
Unknown
Sunlit
N/A
Visualization observer readout
Local Sidereal Time
07:17:46
Azimuth
Unknown
Elevation
Unknown
Doppler factor
Unknown
Orbital elements
Apogee altitude
486.074 km
Perigee altitude
483.844 km
Semi-major axis
6,863.096 km
Eccentricity
0.00016
Inclination
43.0051°
RAAN
18.8938°
Arg. of periapsis
269.7165°
True anomaly
90.36872°
Mean anomaly
90.3501°
Eccentric anomaly
90.35941°
Mean motion
3.81736 °/min
Orbital period
94.31 mins
BSTAR
0.00043991
Loading maneuver chart data...
Computing Atmospheric mass density...
Loading historical data...
Loading historical data...
Loading historical data...
Loading historical data...
Loading historical data...
Loading historical data...
Loading historical data...

Documentation

Showing up to 5 results
|